Location: Newark
(43.4306°N, 0.3089°E)
Time: 20:26:05
(UTC+00:00)

Vanguard 3 - All Passes

Search period start: 25 August 2019 00:00
Search period end: 04 September 2019 00:00
Orbit: 508 x 3263 km, 33.3° (Epoch: 24 August)

Date Brightness Start Highest point End Pass type
(mag) Time Alt. Az. Time Alt. Az. Time Alt. Az.
25 Aug - 14:59:30 10° SSW 15:07:36 23° SSE 15:13:06 10° ESE daylight
25 Aug - 17:12:33 10° WSW 17:19:32 31° S 17:24:02 10° ESE daylight
25 Aug - 19:26:27 10° WSW 19:30:27 21° SSW 19:33:34 10° SSE visible
26 Aug - 13:44:57 10° SSW 13:53:07 19° SSE 13:59:04 10° ESE daylight
26 Aug - 15:56:58 10° SW 16:05:38 31° S 16:11:05 10° ESE daylight
26 Aug - 18:11:05 10° WSW 18:17:07 30° S 18:21:10 10° SE daylight
26 Aug - 20:26:02 10° SW 20:27:35 12° SSW 20:29:00 10° S visible
27 Aug - 12:31:47 10° S 12:38:19 14° SSE 12:43:38 10° ESE daylight
27 Aug - 14:41:22 10° SW 14:51:22 29° SSE 14:57:49 10° ESE daylight
27 Aug - 16:55:22 10° WSW 17:03:29 35° S 17:08:30 10° ESE daylight
27 Aug - 19:09:57 10° WSW 19:14:26 22° SSW 19:17:47 10° SSE visible
28 Aug - 13:26:11 10° SSW 13:36:43 24° SSE 13:43:58 10° ESE daylight
28 Aug - 15:39:21 10° SW 15:49:28 37° S 15:55:35 10° ESE daylight
28 Aug - 17:54:12 10° WSW 18:01:05 32° SSW 18:05:33 10° SE daylight
28 Aug - 20:10:10 10° SW 20:11:28 11° SSW 20:12:40 10° SSW visible
29 Aug - 12:12:01 10° S 12:21:45 19° SSE 12:29:09 10° ESE daylight
29 Aug - 14:23:17 10° SW 14:35:02 34° SSE 14:42:20 10° ESE daylight
29 Aug - 16:38:06 10° WSW 16:47:22 39° S 16:52:55 10° ESE daylight
29 Aug - 18:53:20 10° WSW 18:58:22 22° SSW 19:02:00 10° SSE daylight
30 Aug - 11:00:20 10° SSE 11:06:33 13° SE 11:11:59 10° ESE daylight
30 Aug - 13:07:37 10° SSW 13:20:12 30° SSE 13:28:35 10° ESE daylight
30 Aug - 15:21:42 10° WSW 15:33:13 41° S 15:40:00 10° ESE daylight
30 Aug - 17:37:11 10° WSW 17:44:59 34° SSW 17:49:52 10° SE daylight
30 Aug - 19:54:17 10° SW 19:55:16 10° SW 19:56:13 10° SSW visible
31 Aug - 11:52:52 10° SSW 12:05:02 24° SSE 12:14:00 10° ESE daylight
31 Aug - 14:05:16 10° SW 14:18:36 40° SSE 14:26:44 10° ESE daylight
31 Aug - 16:20:44 10° WSW 16:31:11 42° S 16:37:16 10° ESE daylight
31 Aug - 18:36:37 10° WSW 18:42:13 22° SSW 18:46:10 10° SSE daylight
01 Sep - 10:39:51 10° S 10:49:41 17° SE 10:57:51 10° ESE daylight
01 Sep - 12:49:13 10° SW 13:03:33 35° SSE 13:12:59 10° E daylight
01 Sep - 15:04:00 10° WSW 15:16:51 46° S 15:24:20 10° ESE daylight
01 Sep - 17:20:05 10° W 17:28:48 35° SSW 17:34:09 10° SE daylight
01 Sep - 19:38:34 10° SW 19:39:01 10° SW 19:39:27 10° SW visible
02 Sep - 11:34:03 10° SSW 11:48:11 28° SSE 11:58:31 10° E daylight
02 Sep - 13:47:16 10° SW 14:02:02 44° S 14:11:01 10° ESE daylight
02 Sep - 16:03:18 10° WSW 16:14:53 45° S 16:21:34 10° ESE daylight
02 Sep - 18:19:46 10° W 18:25:58 22° SSW 18:30:17 10° SSE daylight
03 Sep - 10:20:22 10° S 10:32:40 21° SE 10:42:46 10° ESE daylight
03 Sep - 12:30:57 10° SW 12:46:46 40° SSE 12:57:14 10° E daylight
03 Sep - 14:46:16 10° WSW 15:00:23 49° S 15:08:35 10° ESE daylight
03 Sep - 17:02:52 10° W 17:12:31 35° SSW 17:18:23 10° SE daylight
